American Falls Reservoir Weather Center

Moon Phase Calendar



American Falls Reservoir Water Level
Online Cameras

 


      

Current Conditions in Aberdeen
1/30/2023 8:48:29 PM

-4°F
Feels Like -4
Clear
Humidity
71%
Pressure
30.33"
Wind
0
Dew Point
-10°F
UV Index
0/10 (Low)
Visibility
6 mi

Hourly Forecast

Date & Time Mon, Jan 30
8:00 PM
Mon, Jan 30
9:00 PM
Mon, Jan 30
10:00 PM
Mon, Jan 30
11:00 PM
Tue, Jan 31
12:00 AM
Tue, Jan 31
1:00 AM
Tue, Jan 31
2:00 AM
Tue, Jan 31
3:00 AM
Tue, Jan 31
4:00 AM
Tue, Jan 31
5:00 AM
Tue, Jan 31
6:00 AM
Tue, Jan 31
7:00 AM
Tue, Jan 31
8:00 AM
Tue, Jan 31
9:00 AM
Tue, Jan 31
10:00 AM
Tue, Jan 31
11:00 AM
Tue, Jan 31
12:00 PM
Tue, Jan 31
1:00 PM
Tue, Jan 31
2:00 PM
Tue, Jan 31
3:00 PM
Tue, Jan 31
4:00 PM
Tue, Jan 31
5:00 PM
Tue, Jan 31
6:00 PM
Tue, Jan 31
7:00 PM
Tue, Jan 31
8:00 PM
Tue, Jan 31
9:00 PM
Tue, Jan 31
10:00 PM
Tue, Jan 31
11:00 PM
Wed, Feb 1
12:00 AM
Wed, Feb 1
1:00 AM
Wed, Feb 1
2:00 AM
Wed, Feb 1
3:00 AM
Wed, Feb 1
4:00 AM
Wed, Feb 1
5:00 AM
Wed, Feb 1
6:00 AM
Wed, Feb 1
7:00 AM
Wed, Feb 1
8:00 AM
Wed, Feb 1
9:00 AM
Wed, Feb 1
10:00 AM
Wed, Feb 1
11:00 AM
Wed, Feb 1
12:00 PM
Wed, Feb 1
1:00 PM
Wed, Feb 1
2:00 PM
Wed, Feb 1
3:00 PM
Wed, Feb 1
4:00 PM
Wed, Feb 1
5:00 PM
Wed, Feb 1
6:00 PM
Wed, Feb 1
7:00 PM
Condition
Clear

Clear

Clear

Clear

Clear

Clear

Clouds

Clouds

Clouds

Clear

Clear

Clouds

Clouds

Clouds

Clouds

Clouds

Clear

Clouds

Clouds

Clouds

Clouds

Clouds

Clouds

Clouds

Clouds

Clouds

Clouds

Clouds

Clouds

Clouds

Clouds

Clouds

Clouds

Clouds

Clouds

Clouds

Clouds

Clouds

Clouds

Clouds

Clouds

Clouds

Clouds

Clouds

Clouds

Clouds

Clouds

Clouds
Temperature -6°F-4°F-7°F-10°F-12°F-15°F-18°F-18°F-18°F-17°F-17°F-16°F-15°F-11°F-6°F-2°F2°F4°F6°F7°F7°F6°F4°F6°F8°F9°F8°F3°F0°F0°F1°F0°F0°F1°F-1°F-1°F-1°F2°F7°F10°F13°F15°F17°F17°F18°F14°F8°F7°F
Feels Like -6°F-4°F-7°F-10°F-12°F-15°F-18°F-28°F-29°F-29°F-27°F-28°F-27°F-23°F-18°F-13°F-9°F-4°F-2°F-1°F-1°F-2°F-3°F-1°F1°F2°F1°F-4°F-7°F-8°F-7°F-9°F-8°F-8°F-9°F-11°F-10°F-8°F-4°F2°F5°F7°F9°F11°F11°F8°F2°F0°F
Cloudiness 0%0%1%1%3%8%12%13%11%10%10%11%12%12%13%12%8%14%29%27%29%40%100%100%100%100%100%99%38%62%75%81%84%87%92%85%86%72%72%65%37%47%56%65%68%70%54%65%
Visibility 6 mi6 mi6 mi6 mi6 mi6 mi6 mi6 mi6 mi6 mi6 mi6 mi6 mi6 mi6 mi6 mi6 mi6 mi6 mi6 mi6 mi6 mi6 mi6 mi6 mi6 mi6 mi6 mi6 mi6 mi6 mi6 mi6 mi6 mi6 mi6 mi6 mi6 mi6 mi6 mi6 mi6 mi6 mi6 mi6 mi6 mi6 mi6 mi
Precipitation 0%0%0%0%0%0%0%0%0%0%0%0%0%0%0%0%0%0%0%0%0%0%0%0%0%0%0%0%0%0%0%0%0%0%0%0%0%0%0%0%0%0%0%0%0%0%0%0%
Humidity 75%71%76%80%85%88%92%90%89%88%87%87%86%84%80%77%76%75%75%77%80%86%88%86%85%86%89%90%90%90%90%91%91%91%92%92%92%91%87%84%82%82%82%83%85%90%92%91%
Dew Point -12°F-10°F-12°F-14°F-15°F-17°F-26°F-26°F-26°F-26°F-25°F-25°F-24°F-20°F-16°F-12°F-8°F-5°F-3°F-2°F-1°F0°F-2°F0°F1°F3°F2°F-3°F-6°F-6°F-5°F-7°F-6°F-5°F-7°F-7°F-7°F-4°F0°F4°F6°F8°F10°F11°F12°F10°F3°F2°F
Pressure 30.45"30.33"30.47"30.62"30.74"30.86"31.01"31.04"31.04"31.01"31.01"31.01"31.01"30.95"30.89"30.83"30.8"30.74"30.68"30.65"30.62"30.65"30.65"30.65"30.62"30.62"30.62"30.68"30.71"30.74"30.71"30.74"30.74"30.74"30.74"30.74"30.74"30.74"30.71"30.65"30.62"30.59"30.56"30.53"30.53"30.56"30.62"30.65"
Wind Speed 1.6 mph1.5 mph1 mph2 mph2.5 mph2.8 mph2.8 mph3.4 mph3.8 mph4.1 mph3.6 mph3.9 mph4.3 mph4.7 mph5.2 mph5.3 mph5 mph4.1 mph4.2 mph4.2 mph4.4 mph4.3 mph3.9 mph3.4 mph3.4 mph3.6 mph3.7 mph3.2 mph3.3 mph3.5 mph3.4 mph3.8 mph3.8 mph4.3 mph3.4 mph4.4 mph4.4 mph4.6 mph5.8 mph4.6 mph5.1 mph4.8 mph4.7 mph4.4 mph4.5 mph4 mph3.4 mph3.8 mph
Wind
Direction
128°
SE
117°
ESE
72°
ENE
83°
E
53°
NE
48°
NE
59°
ENE
37°
NE
52°
NE
56°
NE
41°
NE
51°
NE
48°
NE
39°
NE
33°
NNE
32°
NNE
29°
NNE
27°
NNE
22°
NNE
30°
NNE
32°
NNE
36°
NE
37°
NE
48°
NE
62°
ENE
40°
NE
27°
NNE
39°
NE
39°
NE
53°
NE
49°
NE
43°
NE
47°
NE
38°
NE
43°
NE
46°
NE
51°
NE
41°
NE
38°
NE
43°
NE
25°
NNE
31°
NNE
31°
NNE
44°
NE
40°
NE
31°
NNE
47°
NE
59°
ENE

Daily Forecast

Date High Low Precip. Humidity
Today
Jan 30

Clear
-1 °F
-24 °F
0%
75%
Tuesday
Jan 31

Clear
9 °F
-18 °F
0%
76%
Wednesday
Feb 1

Clouds
18 °F
-1 °F
0%
82%
Thursday
Feb 2

Clouds
24 °F
5 °F
0%
84%
Friday
Feb 3

Snow
31 °F
11 °F
80%
85%
Saturday
Feb 4

Clouds
31 °F
14 °F
0%
93%
Sunday
Feb 5

Snow
34 °F
21 °F
100%
92%
Monday
Feb 6

Snow
33 °F
29 °F
35%
94%
Tuesday
Feb 7

Snow
31 °F
14 °F
32%
92%
Wednesday
Feb 8

Clouds
25 °F
12 °F
0%
91%
Thursday
Feb 9

Clouds
21 °F
7 °F
0%
87%
Friday
Feb 10

Clouds
24 °F
11 °F
0%
91%
Saturday
Feb 11

Snow
22 °F
10 °F
24%
86%
Sunday
Feb 12

Clouds
18 °F
3 °F
0%
92%
Monday
Feb 13

Snow
20 °F
5 °F
91%
83%
Tuesday
Feb 14

Snow
22 °F
8 °F
31%
87%

Temperature 8-14 Day Outlook



Precipitation 8-14 Day Outlook




Quick Links
American Falls Reservoir News
American Falls Reservoir Photos
American Falls Reservoir Videos




About Us
Contact Us
Site Map
Search Site
Advertise With Us
   
AmericanFalls.USLakes.info
THE AMERICAN FALLS RESERVOIR WEBSITE

Copyright 2023, Lakes Online
Privacy    |    Legal